| time (UTC) | temp C | wind direction | speed KPH | gust KPH | rain 1hr cm | rain 24hr cm | rain mn cm | humidity % | barometer mb |
| 20260510204556 | 31 | 138 | 9.7 | 22.5 | 0.00 | 0.00 | 0.00 | 73 | 1009.9 |
| 20260510203055 | 31 | 150 | 6.4 | 20.9 | 0.00 | 0.00 | 0.00 | 73 | 1010.0 |
| 20260510201603 | 31 | 158 | 1.6 | 17.7 | 0.00 | 0.00 | 0.00 | 73 | 1010.2 |
| 20260510200052 | 31 | 90 | 6.4 | 16.1 | 0.00 | 0.00 | 0.00 | 73 | 1010.4 |
| 20260510194552 | 31 | 95 | 1.6 | 16.1 | 0.00 | 0.00 | 0.00 | 75 | 1010.5 |
| 20260510193057 | 30 | 119 | 1.6 | 19.3 | 0.00 | 0.00 | 0.00 | 75 | 1010.5 |
| 20260510191554 | 30 | 97 | 3.2 | 14.5 | 0.00 | 0.00 | 0.00 | 76 | 1010.6 |
| 20260510190049 | 31 | 123 | 3.2 | 14.5 | 0.00 | 0.00 | 0.00 | 74 | 1010.7 |
| 20260510184547 | 31 | 115 | 4.8 | 19.3 | 0.00 | 0.00 | 0.00 | 73 | 1010.7 |
| 20260510183047 | 31 | 108 | 4.8 | 22.5 | 0.00 | 0.00 | 0.00 | 74 | 1010.7 |
| 20260510181546 | 30 | 140 | 9.7 | 20.9 | 0.00 | 0.00 | 0.00 | 75 | 1010.9 |
| 20260510180044 | 29 | 147 | 8.0 | 20.9 | 0.00 | 0.00 | 0.00 | 78 | 1010.9 |
| 20260510174541 | 28 | 134 | 8.0 | 22.5 | 0.00 | 0.00 | 0.00 | 78 | 1011.1 |
| 20260510173038 | 29 | 150 | 9.7 | 24.1 | 0.00 | 0.00 | 0.00 | 77 | 1011.1 |
| 20260510171538 | 29 | 119 | 11.3 | 29.0 | 0.00 | 0.00 | 0.00 | 77 | 1011.1 |
| 20260510170041 | 29 | 134 | 9.7 | 20.9 | 0.00 | 0.00 | 0.00 | 78 | 1011.0 |
| 20260510164544 | 29 | 123 | 3.2 | 14.5 | 0.00 | 0.08 | 0.00 | 79 | 1010.6 |
| 20260510163033 | 28 | 128 | 6.4 | 19.3 | 0.00 | 0.08 | 0.00 | 79 | 1010.6 |
| 20260510161531 | 29 | 145 | 4.8 | 17.7 | 0.00 | 0.08 | 0.00 | 78 | 1010.6 |
| 20260510160029 | 30 | 130 | 3.2 | 17.7 | 0.00 | 0.08 | 0.00 | 77 | 1010.4 |
| 20260510154542 | 30 | 113 | 6.4 | 19.3 | 0.00 | 0.38 | 0.00 | 78 | 1010.3 |
| 20260510153027 | 30 | 110 | 8.0 | 17.7 | 0.00 | 0.38 | 0.00 | 78 | 1010.2 |
| 20260510151524 | 29 | 105 | 4.8 | 14.5 | 0.00 | 0.38 | 0.00 | 80 | 1010.2 |
| 20260510150023 | 29 | 42 | 6.4 | 12.9 | 0.00 | 0.38 | 0.00 | 80 | 1010.1 |
| 20260510144527 | 28 | 137 | 3.2 | 14.5 | 0.00 | 0.38 | 0.00 | 83 | 1010.2 |
| 20260510143017 | 28 | 140 | 4.8 | 14.5 | 0.00 | 0.38 | 0.00 | 86 | 1010.2 |
| 20260510141512 | 27 | 111 | 3.2 | 19.3 | 0.00 | 0.38 | 0.00 | 88 | 1010.2 |
| 20260510140010 | 26 | 101 | 4.8 | 17.7 | 0.00 | 0.38 | 0.00 | 89 | 1010.3 |
| 20260510134505 | 26 | 83 | 4.8 | 14.5 | 0.00 | 0.38 | 0.00 | 89 | 1010.3 |
| 20260510133100 | 26 | 122 | 4.8 | 14.5 | 0.00 | 0.38 | 0.00 | 89 | 1010.1 |
| 20260510133001 | 26 | 128 | 3.2 | 12.9 | 0.00 | 0.38 | 0.00 | 89 | 1010.1 |
| 20260510131559 | 26 | 113 | 0.0 | 9.7 | 0.00 | 0.38 | 0.00 | 89 | 1010.1 |
| 20260510130112 | 26 | 106 | 1.6 | 12.9 | 0.00 | 0.38 | 0.00 | 89 | 1010.0 |
| 20260510124602 | 26 | 132 | 3.2 | 14.5 | 0.00 | 0.38 | 0.00 | 89 | 1009.9 |
| 20260510123057 | 26 | 111 | 3.2 | 12.9 | 0.00 | 0.38 | 0.00 | 89 | 1009.7 |
| 20260510121552 | 26 | 159 | 1.6 | 14.5 | 0.00 | 0.38 | 0.00 | 89 | 1009.5 |
| 20260510120051 | 26 | 97 | 8.0 | 17.7 | 0.00 | 0.38 | 0.00 | 89 | 1009.4 |
| 20260510114545 | 26 | 92 | 8.0 | 16.1 | 0.00 | 0.38 | 0.00 | 89 | 1009.1 |
| 20260510113045 | 26 | 74 | 3.2 | 9.7 | 0.00 | 0.38 | 0.00 | 88 | 1008.9 |
| 20260510111542 | 26 | 92 | 4.8 | 9.7 | 0.00 | 0.38 | 0.00 | 88 | 1008.7 |
| 20260510110039 | 26 | 132 | 1.6 | 8.0 | 0.00 | 0.38 | 0.00 | 88 | 1008.5 |
| 20260510104537 | 26 | 105 | 0.0 | 3.2 | 0.00 | 0.38 | 0.00 | 89 | 1008.4 |
| 20260510103037 | 25 | 97 | 0.0 | 3.2 | 0.00 | 0.38 | 0.00 | 89 | 1008.2 |
| 20260510101536 | 25 | 138 | 0.0 | 0.0 | 0.00 | 0.38 | 0.00 | 89 | 1008.2 |
| 20260510100034 | 25 | 111 | 0.0 | 0.0 | 0.00 | 0.38 | 0.00 | 89 | 1008.4 |
| 20260510094536 | 25 | 182 | 0.0 | 0.0 | 0.00 | 0.38 | 0.00 | 89 | 1008.6 |
| 20260510093033 | 25 | 182 | 0.0 | 0.0 | 0.00 | 0.38 | 0.00 | 89 | 1008.4 |
| 20260510091533 | 25 | 182 | 0.0 | 0.0 | 0.00 | 0.38 | 0.00 | 89 | 1008.3 |
| 20260510090032 | 25 | 182 | 0.0 | 0.0 | 0.00 | 0.38 | 0.00 | 89 | 1008.2 |
| 20260510084534 | 25 | 214 | 0.0 | 4.8 | 0.00 | 0.38 | 0.00 | 89 | 1008.1 |
| 20260510083028 | 25 | 191 | 0.0 | 3.2 | 0.00 | 0.38 | 0.00 | 89 | 1008.4 |
| 20260510081526 | 25 | 188 | 1.6 | 4.8 | 0.00 | 0.38 | 0.00 | 89 | 1008.6 |
| 20260510080033 | 25 | 189 | 1.6 | 8.0 | 0.00 | 0.38 | 0.00 | 88 | 1008.6 |
| 20260510074521 | 25 | 203 | 1.6 | 6.4 | 0.00 | 0.38 | 0.00 | 88 | 1008.9 |
| 20260510073027 | 25 | 188 | 0.0 | 11.3 | 0.00 | 0.38 | 0.00 | 88 | 1009.0 |
| 20260510071519 | 25 | 184 | 3.2 | 9.7 | 0.00 | 0.38 | 0.00 | 87 | 1009.2 |
| 20260510070018 | 25 | 174 | 4.8 | 11.3 | 0.00 | 0.38 | 0.00 | 87 | 1009.3 |
| 20260510064536 | 25 | 176 | 4.8 | 11.3 | 0.00 | 0.38 | 0.00 | 87 | 1009.3 |
| 20260510063016 | 25 | 163 | 4.8 | 12.9 | 0.00 | 0.38 | 0.00 | 87 | 1009.4 |
| 20260510061516 | 25 | 147 | 4.8 | 16.1 | 0.00 | 0.38 | 0.00 | 86 | 1009.2 |
| 20260510060013 | 25 | 172 | 4.8 | 14.5 | 0.00 | 0.38 | 0.00 | 86 | 1009.1 |
| 20260510054512 | 25 | 159 | 8.0 | 17.7 | 0.00 | 0.38 | 0.00 | 86 | 1009.3 |
| 20260510053024 | 26 | 197 | 8.0 | 19.3 | 0.00 | 0.38 | 0.00 | 86 | 1009.5 |
| 20260510051507 | 26 | 120 | 8.0 | 19.3 | 0.00 | 0.38 | 0.00 | 86 | 1009.6 |
| 20260510050002 | 26 | 136 | 8.0 | 17.7 | 0.00 | 0.38 | 0.38 | 85 | 1009.4 |
| 20260510044502 | 26 | 128 | 6.4 | 19.3 | 0.00 | 0.38 | 0.38 | 86 | 1009.4 |
| 20260510043002 | 26 | 153 | 4.8 | 17.7 | 0.00 | 0.38 | 0.38 | 85 | 1009.6 |
| 20260510041503 | 26 | 116 | 6.4 | 14.5 | 0.00 | 0.38 | 0.38 | 85 | 1009.7 |
| 20260510040002 | 26 | 91 | 3.2 | 12.9 | 0.00 | 0.38 | 0.38 | 86 | 1009.5 |
| 20260510034618 | 26 | 107 | 1.6 | 14.5 | 0.00 | 0.38 | 0.38 | 87 | 1009.3 |
| 20260510033106 | 26 | 74 | 9.7 | 19.3 | 0.00 | 0.38 | 0.38 | 87 | 1008.7 |
| 20260510031601 | 26 | 96 | 11.3 | 19.3 | 0.00 | 0.38 | 0.38 | 87 | 1008.6 |
| 20260510030109 | 26 | 92 | 8.0 | 19.3 | 0.00 | 0.38 | 0.38 | 87 | 1008.5 |
| 20260510024600 | 26 | 93 | 12.9 | 19.3 | 0.00 | 0.38 | 0.38 | 87 | 1008.2 |
| 20260510023057 | 26 | 75 | 11.3 | 19.3 | 0.00 | 0.38 | 0.38 | 87 | 1008.1 |
| 20260510021603 | 26 | 76 | 11.3 | 22.5 | 0.00 | 0.38 | 0.38 | 87 | 1007.9 |
| 20260510020057 | 26 | 87 | 14.5 | 22.5 | 0.00 | 0.38 | 0.38 | 87 | 1007.7 |
| 20260510014601 | 26 | 78 | 14.5 | 24.1 | 0.00 | 0.38 | 0.38 | 86 | 1007.6 |
| 20260510013114 | 26 | 113 | 14.5 | 22.5 | 0.00 | 0.38 | 0.38 | 86 | 1007.4 |
| 20260510011555 | 26 | 92 | 16.1 | 22.5 | 0.00 | 0.38 | 0.38 | 86 | 1007.3 |
| 20260510010054 | 26 | 99 | 14.5 | 24.1 | 0.00 | 0.38 | 0.38 | 85 | 1007.5 |
| 20260510004553 | 26 | 71 | 11.3 | 27.4 | 0.00 | 0.38 | 0.38 | 85 | 1007.2 |
| 20260510003103 | 27 | 77 | 17.7 | 24.1 | 0.00 | 0.38 | 0.38 | 84 | 1007.2 |
| 20260510001552 | 27 | 74 | 19.3 | 30.6 | 0.00 | 0.38 | 0.38 | 83 | 1007.2 |
| 20260510000109 | 27 | 77 | 24.1 | 32.2 | 0.00 | 0.38 | 0.38 | 82 | 1007.2 |
| 20260509234550 | 27 | 65 | 25.7 | 32.2 | 0.00 | 0.38 | 0.38 | 82 | 1007.0 |
| 20260509233050 | 27 | 74 | 25.7 | 30.6 | 0.00 | 0.38 | 0.38 | 81 | 1006.8 |
| 20260509231553 | 27 | 61 | 24.1 | 29.0 | 0.00 | 0.38 | 0.38 | 81 | 1006.6 |
| 20260509230050 | 27 | 61 | 22.5 | 32.2 | 0.00 | 0.38 | 0.38 | 82 | 1006.8 |
| 20260509224548 | 27 | 50 | 20.9 | 27.4 | 0.00 | 0.38 | 0.38 | 81 | 1006.9 |
| 20260509223048 | 27 | 52 | 20.9 | 27.4 | 0.00 | 0.38 | 0.38 | 80 | 1006.8 |
| 20260509221554 | 27 | 53 | 19.3 | 24.1 | 0.00 | 0.38 | 0.38 | 80 | 1006.9 |
| 20260509220047 | 27 | 51 | 17.7 | 20.9 | 0.00 | 0.38 | 0.38 | 80 | 1007.1 |
| 20260509214558 | 27 | 69 | 16.1 | 22.5 | 0.00 | 0.38 | 0.38 | 79 | 1007.2 |
| 20260509213045 | 27 | 69 | 16.1 | 20.9 | 0.00 | 0.38 | 0.38 | 80 | 1007.3 |
| 20260509211547 | 27 | 67 | 17.7 | 22.5 | 0.00 | 0.38 | 0.38 | 79 | 1007.5 |
| 20260509210048 | 27 | 55 | 16.1 | 22.5 | 0.00 | 0.38 | 0.38 | 79 | 1007.6 |